Regional Weather Roundup
Issued by NWS Cleveland, OH

Home | Current Version | Previous Version | Graphics & Text | Print | Product List | Glossary On
Versions: 1 2 3 4 5 6 7 8 9 10 11 12 13 14 15 16 17 18 19 20 21 22 23 24 25 26 27 28 29 30 31 32 33 34 35 36 37 38 39 40 41 42 43 44 45 46 47 48 49 50
000
ASUS41 KCLE 180710
RWRCLE
OHIO REGIONAL WEATHER ROUNDUP
NATIONAL WEATHER SERVICE CLEVELAND, OH
300 AM EDT FRI AUG 18 2017

NOTE: "FAIR" INDICATES FEW OR NO CLOUDS BELOW 12,000 FEET WITH NO
SIGNIFICANT WEATHER AND/OR OBSTRUCTIONS TO VISIBILITY.

OHZ001>008-015>018-024>027-034-035-043-044-180800-
   NORTHWEST OHIO

CITY           SKY/WX    TMP DP  RH WIND       PRES   REMARKS
DEFIANCE       CLEAR     71  66  84 SW8       29.77F
FINDLAY        CLEAR     70  66  87 S8        29.78F
TOLEDO EXPRESS CLEAR     71  68  90 SW9       29.75F
TOLEDO EXEC    CLEAR     71  68  90 SW9       29.76F
LIMA           CLEAR     70  69  97 S9        29.80F
$$

OHZ009>014-019>023-028>033-038-089-180800-
   NORTHEAST OHIO

CITY           SKY/WX    TMP DP  RH WIND       PRES   REMARKS
CLE-HOPKINS    CLEAR     75  71  87 SW9       29.80F
CLE-LAKEFRONT  CLEAR     76  69  79 S10       29.77F
CUY CO. ARPT   NOT AVBL
LORAIN-ELYRIA  CLEAR     72  66  81 SW6       29.79F
ASHTABULA      CLEAR     72  72 100 S10       29.80F
AKRON-CANTON   CLOUDY    73  69  87 SW7       29.83F
WOOSTER        MOCLDY    71  70  96 SW5       29.83F
MANSFIELD      CLOUDY    72  71  97 SW8       29.82F
YOUNGSTOWN     PTCLDY    72  70  93 S7        29.83F
$$

OHZ042-051>053-060>062-070>072-077>081-180800-
  SOUTHWEST OHIO

CITY           SKY/WX    TMP DP  RH WIND       PRES   REMARKS
CINC-COVINGTON CLOUDY    74  74 100 SW7       29.85F
CINC-LUNKEN    CLOUDY    75  74  96 SW6       29.84F
HAMILTON       CLOUDY    75  74  96 SW5       29.85S
DAYTON         MOCLDY    73  72  96 SW12      29.84F
WRIGHT-PAT AFB PTCLDY    73  73 100 SW7       29.83F
DAYTON GENERAL CLOUDY    74  72  93 SW7       29.84F
WILMINGTON     CLOUDY    73  73 100 SW9       29.85F
$$

OHZ036-037-039>041-045>050-054>059-063>069-073>076-082>088-180800-
  CENTRAL AND SOUTHEAST OHIO

CITY           SKY/WX    TMP DP  RH WIND       PRES   REMARKS
COLUMBUS       CLOUDY    74  73  97 S6        29.83F
OSU AIRPORT    CLOUDY    74  73  97 SW8       29.82F
BOLTON FIELD   CLOUDY    72  70  96 SW3       29.84S
RICKENBACK AFB CLOUDY    73  73 100 SW7       29.83S
NEWARK         CLOUDY    74  72  93 S5        29.83F
MARION         PTCLDY    73  70  90 SW8       29.82F
LANCASTER      CLOUDY    74  73  97 S8        29.84F
ZANESVILLE     CLOUDY    73  71  93 S6        29.84F
NEW PHILLY     NOT AVBL
$$



USA.gov is the U.S. government's official web portal to all federal, state and local government web resources and services.